St Lawrence Observation History
Time Wind Speed Temp Pressure Rel. Hum Rain
25/02:00pm NNE 12-18 kts 29.8°c 1006.6 hPa 56% 0.0mm
25/01:30pm NNE 12-18 kts 30.1°c 1006.8 hPa 55% 0.0mm
25/01:00pm NNE 12-15 kts 30.2°c 1007.1 hPa 54% 0.0mm
25/12:30pm NE 9-13 kts 30.7°c 1007.6 hPa 52% 0.0mm
25/12:00pm ENE 9-16 kts 30.9°c 1008.0 hPa 51% 0.0mm
25/11:30am ENE 7-12 kts 31.0°c 1008.4 hPa 51% 0.0mm
25/11:00am ENE 7-12 kts 30.5°c 1008.7 hPa 50% 0.0mm
25/10:30am ENE 6-9 kts 29.5°c 1009.1 hPa 56% 0.0mm
25/10:00am ESE 7-13 kts 28.9°c 1009.4 hPa 57% 0.0mm
25/09:30am SE 6-9 kts 28.1°c 1009.7 hPa 62% 0.0mm
25/09:00am ESE 5-9 kts 27.6°c 1010.1 hPa 64% 0.0mm
25/08:30am ESE 3-7 kts 26.8°c 1010.0 hPa 66% 0.0mm
25/08:00am S 5-6 kts 26.1°c 1010.0 hPa 69% 0.0mm
25/07:30am S 5-7 kts 25.1°c 1009.9 hPa 73% 0.0mm
25/07:00am S 5-7 kts 23.8°c 1009.7 hPa 78% 0.0mm
25/06:30am SSW 3-5 kts 22.1°c 1009.4 hPa 84% 0.0mm
25/06:00am S 4-5 kts 21.2°c 1009.0 hPa 87% 0.0mm
25/05:30am S 5-6 kts 21.1°c 1008.7 hPa 86% 0.0mm
25/05:00am SSE 6-8 kts 21.3°c 1008.4 hPa 85% 0.0mm
25/04:30am S 5-7 kts 21.3°c 1008.5 hPa 85% 0.0mm
25/04:00am S 4-5 kts 20.5°c 1008.3 hPa 85% 0.0mm
25/03:30am S 3-4 kts 20.3°c 1008.4 hPa 84% 0.0mm
25/03:00am S 3-4 kts 20.7°c 1008.7 hPa 82% 0.0mm
25/02:30am S 3-4 kts 21.0°c 1008.8 hPa 81% 0.0mm
25/02:00am S 3-4 kts 21.2°c 1009.0 hPa 80% 0.0mm
25/01:30am S 3-4 kts 21.2°c 1009.1 hPa 79% 0.0mm
25/01:00am CALM 0 kts 20.9°c 1009.4 hPa 81% 0.0mm
25/12:30am CALM 0 kts 21.5°c 1009.6 hPa 79% 0.0mm
25/12:00am S 3-4 kts 22.3°c 1010.0 hPa 75% 0.0mm
Time Wind Speed Temp Pressure Rel. Hum Rain
24/11:30pm CALM 0 kts 22.2°c 1010.2 hPa 75% 0.0mm
24/11:00pm CALM 0 kts 22.8°c 1010.6 hPa 73% 0.0mm
24/10:30pm CALM 0 kts 23.2°c 1010.9 hPa 70% 0.0mm
24/10:00pm CALM 0 kts 23.9°c 1010.9 hPa 68% 0.0mm
24/09:30pm SE 3-4 kts 24.8°c 1010.9 hPa 64% 0.0mm
24/09:00pm ESE 5-9 kts 25.4°c 1010.8 hPa 62% 0.0mm
24/08:30pm ESE 6-10 kts 25.6°c 1010.5 hPa 61% 0.0mm
24/08:00pm ESE 7-12 kts 26.2°c 1010.2 hPa 58% 0.0mm
24/07:30pm E 6-9 kts 26.7°c 1009.6 hPa 62% 0.0mm
24/07:00pm NE 9-14 kts 27.1°c 1009.4 hPa 62% 0.0mm
24/06:30pm NNE 7-13 kts 27.2°c 1009.1 hPa 67% 0.0mm
24/06:00pm NE 8-14 kts 27.2°c 1008.8 hPa 66% 0.0mm
24/05:30pm NNE 8-13 kts 27.1°c 1008.7 hPa 66% 0.0mm
24/05:00pm NNE 5-7 kts 26.5°c 1008.5 hPa 66% 0.0mm
24/04:30pm ENE 8-13 kts 25.5°c 1008.3 hPa 70% 0.0mm
24/04:00pm ENE 10-17 kts 28.3°c 1008.3 hPa 57% 0.0mm
24/03:30pm NE 10-15 kts 29.3°c 1007.9 hPa 55% 0.0mm
24/03:00pm NNE 11-17 kts 30.1°c 1007.8 hPa 49% 0.0mm
24/02:30pm NNE 14-21 kts 30.8°c 1008.0 hPa 47% 0.0mm
24/02:00pm NNE 11-18 kts 31.8°c 1007.9 hPa 43% 0.0mm
24/01:30pm NNE 9-13 kts 31.2°c 1008.3 hPa 42% 0.0mm
24/01:00pm N 7-11 kts 30.3°c 1008.7 hPa 44% 0.0mm
24/12:30pm N 6-9 kts 31.1°c 1009.1 hPa 45% 0.0mm
24/12:00pm SSW 5-8 kts 30.5°c 1009.7 hPa 41% 0.0mm
24/11:30am SE 5-10 kts 29.5°c 1010.4 hPa 44% 0.0mm
24/11:00am E 6-11 kts 29.0°c 1011.2 hPa 46% 0.0mm
24/10:30am E 3-8 kts 29.4°c 1011.6 hPa 46% 0.0mm
24/10:00am E 6-11 kts 28.7°c 1012.0 hPa 53% 0.0mm
24/09:30am E 5-12 kts 27.5°c 1012.2 hPa 53% 0.0mm
24/09:00am ESE 5-10 kts 28.0°c 1012.2 hPa 55% 0.0mm
24/08:30am SSE 6-10 kts 26.6°c 1012.1 hPa 61% 0.0mm
24/08:00am S 6-10 kts 25.4°c 1012.1 hPa 65% 0.0mm
24/07:30am S 7-10 kts 24.5°c 1012.2 hPa 68% 0.0mm
24/07:00am SSE 5-7 kts 23.2°c 1011.9 hPa 75% 0.0mm
24/06:30am S 5-6 kts 21.6°c 1011.6 hPa 81% 0.0mm
24/06:00am S 4-7 kts 20.5°c 1011.3 hPa 85% 0.0mm
24/05:30am S 4-6 kts 20.3°c 1011.1 hPa 85% 0.0mm
24/05:00am SSE 5-6 kts 21.2°c 1010.9 hPa 83% 0.0mm
24/04:30am S 4-5 kts 21.0°c 1010.6 hPa 82% 0.0mm
24/04:00am S 5-6 kts 21.4°c 1010.8 hPa 82% 0.0mm
24/03:30am SSE 4-5 kts 21.1°c 1010.6 hPa 81% 0.0mm
24/03:00am S 5-6 kts 21.4°c 1010.8 hPa 79% 0.0mm
24/02:30am SSE 5-7 kts 22.0°c 1011.0 hPa 78% 0.0mm
24/02:00am S 5-6 kts 21.9°c 1011.4 hPa 78% 0.0mm
24/01:30am SSE 5-7 kts 22.1°c 1011.7 hPa 77% 0.0mm
24/01:00am SSE 4-5 kts 22.3°c 1012.2 hPa 77% 0.0mm
24/12:30am S 5-7 kts 22.7°c 1012.4 hPa 75% 0.0mm
24/12:00am SE 4-5 kts 23.7°c 1012.6 hPa 73% 0.0mm
Time Wind Speed Temp Pressure Rel. Hum Rain
23/11:30pm SE 3-5 kts 24.1°c 1012.8 hPa 72% 0.0mm
23/11:00pm ESE 4-6 kts 24.5°c 1012.8 hPa 70% 0.0mm
23/10:30pm E 5-7 kts 24.8°c 1012.9 hPa 69% 0.0mm
23/10:00pm E 6-9 kts 25.2°c 1012.9 hPa 67% 0.0mm
23/09:30pm E 6-11 kts 25.4°c 1012.8 hPa 65% 0.0mm
23/09:00pm ENE 7-12 kts 25.7°c 1012.5 hPa 64% 0.0mm
23/08:30pm ENE 7-12 kts 26.0°c 1012.1 hPa 63% 0.0mm
23/08:00pm NE 7-10 kts 26.3°c 1011.6 hPa 58% 0.0mm
23/07:30pm NE 7-10 kts 26.5°c 1011.2 hPa 58% 0.0mm
23/07:00pm NE 7-10 kts 26.8°c 1010.9 hPa 59% 0.0mm
23/06:30pm NE 10-13 kts 27.2°c 1010.6 hPa 56% 0.0mm
23/06:00pm NNE 12-16 kts 27.6°c 1010.4 hPa 54% 0.0mm
23/05:30pm NNE 12-17 kts 28.4°c 1010.0 hPa 55% 0.0mm
23/05:00pm NNE 14-19 kts 28.7°c 1009.6 hPa 58% 0.0mm
23/04:30pm NNE 13-19 kts 29.4°c 1009.4 hPa 54% 0.0mm
23/04:00pm NNE 13-18 kts 28.9°c 1009.5 hPa 57% 0.0mm
23/03:30pm NNE 11-15 kts 28.8°c 1009.5 hPa 56% 0.0mm
23/03:00pm NNE 12-15 kts 29.6°c 1009.7 hPa 56% 0.0mm
23/02:30pm NNE 11-17 kts 29.6°c 1009.6 hPa 50% 0.0mm
23/02:00pm NNE 11-16 kts 30.3°c 1009.6 hPa 46% 0.0mm
23/01:30pm NNE 13-17 kts 30.5°c 1009.7 hPa 44% 0.0mm
23/01:00pm NNE 11-17 kts 31.8°c 1009.9 hPa 45% 0.0mm
23/12:30pm ESE 5-9 kts 30.4°c 1010.2 hPa 44% 0.0mm
23/12:00pm ENE 8-13 kts 30.2°c 1010.6 hPa 44% 0.0mm
23/11:30am E 5-11 kts 29.8°c 1010.9 hPa 45% 0.0mm
23/11:00am ENE 6-10 kts 29.8°c 1011.4 hPa 43% 0.0mm
23/10:30am E 7-13 kts 29.0°c 1011.7 hPa 49% 0.0mm
23/10:00am E 7-10 kts 28.5°c 1012.1 hPa 51% 0.0mm
23/09:30am E 8-13 kts 28.6°c 1012.3 hPa 56% 0.0mm
23/09:00am ESE 10-13 kts 27.5°c 1012.2 hPa 55% 0.0mm
23/08:30am SE 5-7 kts 27.4°c 1012.0 hPa 61% 0.0mm
23/08:00am S 5-7 kts 25.8°c 1011.9 hPa 67% 0.0mm
23/07:30am SSE 6-9 kts 24.9°c 1011.8 hPa 69% 0.0mm
23/07:00am SSE 6-7 kts 23.3°c 1011.8 hPa 74% 0.0mm
23/06:30am SSE 6-8 kts 22.6°c 1011.5 hPa 76% 0.0mm
23/06:00am SSE 6-8 kts 22.2°c 1011.3 hPa 79% 0.0mm
23/05:30am SSE 6-8 kts 21.9°c 1011.0 hPa 80% 0.0mm
23/05:00am SSE 6-8 kts 21.8°c 1010.6 hPa 80% 0.0mm
23/04:30am SSE 5-7 kts 21.8°c 1010.2 hPa 80% 0.0mm
23/04:00am SSE 5-6 kts 22.0°c 1010.2 hPa 80% 0.0mm
23/03:30am SSE 5-7 kts 22.4°c 1010.1 hPa 78% 0.0mm
23/03:00am SSE 5-7 kts 22.5°c 1010.1 hPa 79% 0.0mm
23/02:30am SSE 4-5 kts 22.7°c 1010.1 hPa 79% 0.0mm
23/02:00am SSE 4-5 kts 23.0°c 1010.4 hPa 77% 0.0mm
23/01:30am SSE 3-4 kts 23.1°c 1010.7 hPa 77% 0.0mm
23/01:00am SE 3-4 kts 23.9°c 1011.3 hPa 74% 0.0mm
23/12:30am SE 3-4 kts 24.3°c 1011.6 hPa 72% 0.0mm
23/12:00am E 4-5 kts 24.4°c 1011.7 hPa 72% 0.0mm